Theta_e
321 322 322 322 322 322 322 322 322 321 320 320 319 318 318 319 320 323 330 329 336 335 337 351 353 354 357 348 348 348 347 347 346 348 349 346 343 341 342 342 343 343 342 343 343
321 322 322 322 323 323 323 323 323 322 321 321 319 318 318 319 320 326 329 328 336 335 351 344 342 350 349 346 346 346 348 347 346 345 346 346 343 342 343 344 342 341 342 343 342
321 322 322 322 323 323 323 323 323 323 322 321 319 319 318 318 324 330 327 327 334 334 346 337 340 346 346 345 346 345 348 346 346 346 346 346 345 345 346 346 343 342 343 343 342
322 322 322 322 322 323 323 323 323 323 322 321 318 319 318 318 329 329 324 326 331 333 344 335 338 344 346 347 346 348 346 346 347 346 347 348 346 345 344 343 343 342 342 342 341
320 321 322 322 323 323 323 324 324 323 321 318 317 318 318 327 325 325 322 323 328 332 340 336 340 343 346 346 346 348 348 347 348 347 348 348 347 345 345 341 342 341 341 341 341
317 318 320 321 323 323 323 324 323 321 320 318 317 318 321 325 323 324 329 328 332 338 336 336 339 342 345 345 347 346 347 348 348 349 349 349 348 346 346 341 341 340 341 341 341
316 317 317 318 321 323 323 323 322 321 326 323 318 318 324 324 324 324 325 331 333 335 334 335 336 341 343 345 345 345 347 348 348 348 348 349 351 351 347 342 341 341 343 343 344
318 318 317 317 319 323 323 323 322 321 324 326 321 319 326 322 322 322 326 327 331 328 329 332 335 340 342 344 344 346 346 349 346 346 346 348 354 350 347 343 342 342 344 344 345
321 321 320 318 318 322 323 322 322 323 323 326 329 326 326 321 321 322 325 326 327 327 329 330 334 339 342 345 346 346 347 346 346 345 347 348 352 350 349 346 344 344 344 344 345
321 321 322 320 318 322 323 323 323 323 324 326 328 330 327 324 325 325 326 326 327 328 329 332 336 340 343 345 347 344 345 344 344 346 345 346 350 351 350 348 345 345 345 344 345
316 317 319 321 318 322 323 329 329 331 330 329 330 329 326 325 326 325 326 326 326 328 332 334 337 340 341 342 343 342 343 343 341 341 347 347 349 350 349 350 348 346 346 346 346
315 316 316 321 319 322 327 328 327 327 329 327 327 327 327 327 328 325 326 326 326 329 330 334 336 337 339 341 342 341 342 342 341 342 342 345 345 350 350 350 349 348 346 346 346
314 316 316 319 319 325 326 326 326 327 329 330 329 329 327 326 325 327 325 326 327 328 330 331 334 335 337 340 342 341 341 342 341 340 340 341 342 347 350 349 349 348 348 346 346
310 313 316 318 325 324 328 326 326 326 333 334 331 330 327 326 326 327 326 326 327 327 328 330 331 333 334 337 341 341 340 339 339 340 341 340 349 344 349 352 350 349 349 348 348
310 310 314 315 321 326 328 325 326 326 335 333 330 329 328 327 328 327 327 325 328 328 329 329 329 331 332 335 337 340 340 339 339 338 338 338 340 349 346 350 351 349 348 348 349
312 311 311 319 321 323 324 325 326 331 331 333 331 331 328 327 328 328 325 325 326 328 328 328 328 329 331 332 335 337 339 339 338 338 339 337 340 350 348 348 348 348 348 348 347
312 312 311 314 327 325 324 328 333 332 331 333 333 330 329 328 328 328 326 325 326 326 328 327 328 328 327 329 333 335 337 339 339 338 338 337 340 347 346 343 340 342 346 347 348
312 313 312 315 320 322 326 331 333 329 331 334 331 331 330 330 329 328 327 326 327 327 328 328 327 328 328 328 330 332 333 334 335 335 336 337 339 338 342 339 340 339 342 346 347
313 320 323 326 321 325 328 331 332 330 333 331 332 333 332 329 330 329 328 328 328 328 328 329 328 330 329 329 329 329 330 331 332 333 336 336 338 337 338 339 340 342 344 345 345
313 320 324 327 328 327 330 330 330 328 330 331 333 333 334 332 330 330 329 329 328 328 328 329 329 329 329 328 329 329 332 330 331 333 336 334 334 335 338 337 340 343 344 344 345
317 323 329 327 328 327 330 331 329 327 326 331 333 334 333 333 332 331 331 330 329 329 328 328 329 330 329 328 328 329 330 331 332 332 332 335 336 336 335 336 337 343 344 344 345
321 326 328 327 328 327 330 331 326 328 326 329 332 333 333 333 333 331 330 330 329 328 329 329 329 329 329 330 329 330 329 331 331 333 333 333 333 334 335 337 339 344 345 345 345
323 324 327 328 331 330 329 330 327 327 329 331 332 331 333 333 333 332 330 330 328 329 329 329 328 329 330 329 330 329 330 331 331 332 333 334 333 335 336 339 343 346 348 350 349
322 328 326 327 328 333 331 331 330 327 330 331 333 333 334 334 333 335 331 331 329 329 328 329 328 328 329 330 330 329 329 330 331 332 332 332 332 335 337 339 345 348 351 351 350
323 326 331 331 327 329 330 333 332 332 330 332 334 334 335 336 335 334 334 334 332 328 328 329 330 329 329 331 330 331 329 329 331 331 332 332 332 333 338 341 345 350 352 351 350
324 324 326 327 330 332 328 333 334 333 332 333 334 333 335 337 339 341 339 339 336 332 330 330 330 331 329 330 330 329 331 330 330 330 331 332 331 341 340 342 346 351 352 351 351
319 320 320 324 326 328 329 330 332 332 333 333 335 336 337 338 337 337 336 337 339 337 333 331 330 331 330 330 331 332 332 332 332 331 331 331 338 343 343 346 347 351 352 352 352
Wind_Speed
13 13 13 14 15 15 15 15 14 14 13 14 14 10 8 9 9 7 5 4 6 5 4 1 1 1 3 3 4 5 6 9 16 14 14 9 12 14 16 18 13 5 22 26 27
14 14 15 15 15 16 16 15 15 14 13 13 13 12 8 9 9 11 11 9 7 4 3 5 4 7 8 6 7 5 12 11 9 14 11 9 14 13 12 11 9 19 24 26 25
14 15 16 16 16 17 17 17 16 15 14 13 12 11 8 6 8 9 15 12 10 7 5 7 7 11 5 12 7 19 11 10 8 8 12 12 12 7 9 12 14 21 27 27 24
15 15 16 17 18 18 18 17 17 15 15 13 10 8 6 3 7 2 11 14 11 9 9 8 13 11 7 9 6 13 11 11 9 4 10 6 9 7 10 12 17 21 27 26 23
15 15 16 17 18 19 19 18 16 16 14 11 9 7 5 8 12 4 8 15 13 10 9 11 14 10 7 7 12 12 10 10 10 8 9 5 5 9 9 13 19 24 25 23 21
16 16 16 17 18 19 19 17 15 14 11 9 7 6 4 16 2 5 4 11 13 12 10 8 6 8 7 4 9 9 12 11 9 9 7 5 10 8 10 15 20 23 22 20 19
17 17 17 18 18 18 19 17 15 11 9 8 6 4 8 8 3 4 4 9 13 12 11 6 6 13 4 12 6 9 12 11 10 8 6 8 9 7 14 16 20 20 19 18 17
18 17 17 18 18 18 17 15 13 9 8 7 6 4 8 6 9 6 7 8 13 11 9 6 7 9 10 7 8 10 14 10 8 7 6 8 10 13 16 18 19 19 18 17 16
19 18 17 17 17 18 16 15 11 10 8 6 4 3 9 3 7 9 11 9 11 12 10 8 9 17 7 16 14 17 5 7 11 8 8 10 11 16 17 18 18 19 19 18 18
19 18 17 17 16 16 14 13 8 8 4 3 6 7 10 9 7 8 12 9 12 13 12 13 13 13 13 15 6 10 14 5 8 10 6 9 12 15 19 19 19 20 19 19 20
18 18 16 16 14 14 12 10 7 1 7 14 12 10 2 3 7 11 13 12 13 15 16 19 14 16 19 12 10 6 5 4 5 3 7 6 13 15 19 19 20 21 21 21 21
17 16 15 14 12 7 10 8 6 7 11 13 13 15 14 6 8 13 15 16 16 16 20 16 19 19 17 9 6 9 9 9 7 2 7 7 6 21 20 21 22 22 23 22 22
17 16 14 11 9 7 4 2 7 10 9 7 6 8 9 14 13 17 18 22 16 16 19 21 15 20 17 15 14 12 13 1 4 5 11 8 8 5 21 22 22 22 22 23 24
16 15 14 6 3 7 1 5 10 6 6 12 10 6 8 12 12 10 17 21 12 16 19 15 19 9 19 13 12 15 13 3 5 10 10 4 6 10 15 20 20 23 23 24 24
16 15 12 9 5 3 5 8 9 3 6 5 9 1 9 13 11 15 14 21 16 13 13 15 16 12 17 14 16 16 6 6 7 11 16 15 9 16 14 17 20 24 26 25 25
15 15 10 9 7 7 8 10 5 7 4 8 6 9 12 17 9 9 16 17 16 12 14 16 6 9 17 16 18 16 14 11 13 13 13 16 11 11 8 13 17 22 26 27 25
14 14 12 7 3 6 7 5 7 9 4 7 6 9 14 11 13 11 16 18 15 14 16 16 16 13 15 15 17 11 14 11 12 12 12 14 1 15 21 20 7 10 22 28 27
13 14 11 9 7 7 5 8 8 4 3 5 4 6 11 12 11 13 15 16 19 19 13 14 16 17 12 18 13 13 16 14 11 12 14 3 5 4 20 11 5 2 17 26 27
11 7 5 5 6 6 9 10 11 2 6 4 7 10 10 10 7 12 16 16 17 20 16 12 17 19 17 14 17 16 15 20 22 21 7 4 4 9 7 4 4 9 15 24 26
9 5 7 7 7 7 9 16 8 4 7 8 13 9 12 12 11 12 12 12 15 16 19 12 9 12 16 10 16 17 11 15 13 13 15 7 9 3 5 7 11 9 13 22 24
4 6 5 3 8 12 10 16 6 6 6 7 6 4 11 5 11 14 9 11 11 17 17 19 7 13 10 13 16 12 13 14 15 13 12 11 9 5 7 3 4 15 12 19 21
5 6 3 6 11 16 12 12 4 11 9 7 5 10 11 3 8 12 10 7 8 15 19 17 8 13 15 14 15 17 18 16 9 13 7 9 13 5 9 5 5 13 14 10 11
6 9 3 8 8 11 14 5 9 9 10 7 7 7 3 7 5 10 8 5 7 12 13 15 11 12 16 15 14 12 15 18 17 13 14 10 1 8 9 6 6 10 11 12 11
6 4 9 12 18 13 10 11 13 11 12 7 9 8 10 11 9 5 5 4 6 14 7 13 15 14 9 14 15 18 19 18 17 13 11 8 13 11 10 9 9 10 14 14 15
6 2 5 5 13 12 12 7 10 8 12 7 9 13 10 8 9 11 8 5 9 9 10 13 15 16 18 5 4 11 14 21 18 17 16 10 2 7 11 14 14 14 15 16 17
6 5 6 16 6 8 6 13 11 9 4 11 12 9 4 10 12 14 7 7 3 11 16 17 16 16 14 6 9 10 13 21 18 16 14 11 7 17 13 15 18 14 17 18 19
5 7 7 6 13 11 11 15 10 11 6 15 8 5 10 4 10 14 15 17 15 12 12 18 17 14 13 13 11 14 14 12 12 14 13 12 7 8 9 12 17 17 19 20 21
Wind_Direction
4 0 357 352 349 347 344 339 336 333 325 318 314 303 290 274 268 267 266 215 249 285 4 32 2 281 191 187 286 294 73 65 59 96 105 101 89 85 112 131 141 143 147 148 152
358 356 353 349 345 342 339 336 332 329 325 317 311 306 299 283 267 259 240 231 224 258 117 291 328 238 178 154 321 53 72 71 54 108 116 106 99 127 125 122 137 130 136 148 153
351 351 348 344 342 339 335 332 329 326 322 317 309 302 299 298 282 228 222 216 211 229 241 299 290 264 125 57 38 71 101 105 74 51 97 115 128 154 153 135 153 140 149 155 159
344 344 343 340 339 337 332 330 328 324 320 315 307 296 287 237 238 236 213 205 206 232 261 286 272 269 75 90 117 107 103 104 95 128 103 78 131 130 39 88 141 153 156 159 165
336 338 338 335 335 334 331 329 326 324 321 316 305 290 266 236 251 300 219 204 206 220 253 282 294 321 43 96 121 116 109 118 115 132 113 131 105 114 92 111 137 149 158 164 169
331 333 333 333 333 332 331 329 325 326 328 326 311 287 246 250 262 232 237 209 203 220 249 255 337 340 76 54 27 120 115 128 139 124 137 126 122 145 118 128 142 154 163 168 174
330 332 330 329 330 330 331 328 324 323 326 331 321 298 259 240 206 216 212 208 205 220 245 241 285 288 256 110 123 159 133 140 155 159 143 140 144 128 139 144 152 162 167 170 174
325 329 330 328 327 329 330 328 323 315 314 319 320 288 264 222 238 230 206 210 213 220 227 258 264 276 294 130 182 182 177 160 141 173 134 216 137 132 152 158 163 168 172 173 174
322 326 327 326 326 328 328 329 316 309 305 305 329 263 249 295 215 214 201 206 207 214 222 247 247 253 175 228 188 156 256 124 145 187 144 226 122 149 165 168 169 175 178 179 178
318 321 323 323 327 329 334 332 319 316 312 293 251 256 234 221 185 204 200 197 197 202 219 223 229 235 235 247 348 105 127 156 88 139 210 203 123 163 176 177 177 183 180 185 186
319 320 321 319 327 333 348 346 320 248 250 273 306 266 251 227 237 212 197 196 210 206 212 206 222 230 240 247 24 33 53 143 117 89 258 191 154 171 183 189 182 187 187 191 194
321 320 321 318 327 341 7 3 25 333 300 273 255 251 249 254 234 203 191 199 204 214 216 212 227 237 245 238 234 228 250 150 145 165 278 169 231 154 184 197 188 189 186 195 195
323 323 323 321 332 0 333 351 334 329 264 189 222 245 223 213 233 196 196 204 205 220 218 232 208 238 240 238 235 233 254 34 43 318 237 242 236 219 170 198 195 197 189 192 196
325 325 328 334 10 332 311 324 329 310 271 149 189 168 200 204 220 217 200 207 222 233 230 232 247 242 230 237 228 249 219 225 248 263 291 210 250 251 185 194 194 197 198 193 197
324 325 331 323 268 323 275 323 326 295 267 132 124 161 169 202 107 192 204 212 224 221 235 222 231 202 247 240 239 253 10 272 244 262 263 241 262 175 187 195 185 198 198 202 193
317 319 324 325 288 263 295 311 305 233 245 131 137 185 184 215 213 131 190 216 223 239 235 252 192 256 244 244 246 252 260 250 250 255 269 273 230 124 321 167 183 191 201 197 197
308 307 307 278 159 269 299 285 238 246 86 151 170 176 206 180 200 177 188 199 205 213 215 223 228 227 245 250 237 227 242 244 236 236 250 250 217 145 177 260 118 179 183 197 197
305 299 297 270 241 252 273 234 255 358 263 87 233 189 214 175 205 191 196 202 214 215 237 210 212 218 193 237 231 217 232 241 227 245 248 158 179 219 174 107 120 215 173 188 191
314 318 295 293 214 209 234 225 242 293 24 271 178 220 200 202 258 206 211 214 207 230 245 235 221 196 212 208 235 221 220 251 268 285 261 219 161 229 164 142 105 135 168 181 188
324 283 234 232 215 195 234 256 302 314 308 247 266 206 201 192 198 218 201 219 229 207 240 274 273 180 185 231 226 258 287 222 246 270 282 226 257 250 137 222 142 155 185 179 187
336 250 189 205 177 214 232 232 248 207 261 269 274 260 268 157 196 242 225 214 222 225 213 245 236 210 202 199 224 202 240 237 257 223 251 254 248 146 169 194 202 140 200 177 187
271 240 179 169 214 222 235 248 35 272 206 259 275 289 285 238 244 258 231 232 177 226 199 219 241 235 201 208 230 229 217 250 226 242 276 311 304 10 88 69 241 154 179 173 199
287 287 223 196 236 220 237 244 235 252 237 228 247 237 279 280 258 252 219 104 148 232 199 210 235 247 211 195 205 248 250 234 245 235 247 277 325 63 125 144 142 146 156 162 184
283 231 187 219 258 286 244 218 224 209 277 262 273 298 263 246 237 268 223 112 233 244 185 243 232 255 245 206 206 207 231 252 263 264 250 244 255 142 162 163 157 142 150 149 163
239 291 5 187 228 237 266 285 220 219 214 214 245 242 252 264 227 203 235 179 177 194 212 234 237 245 252 313 285 239 211 224 236 255 273 276 215 195 168 149 155 159 147 148 151
296 322 320 279 293 277 237 247 244 236 260 224 239 189 242 268 311 333 356 264 206 181 214 225 248 252 247 196 242 243 265 208 213 236 249 263 294 61 91 126 145 162 153 148 148
297 277 277 277 250 235 233 223 239 250 279 273 313 330 263 318 327 298 290 293 293 290 204 224 234 224 218 229 220 238 231 226 242 220 249 266 95 112 122 135 158 163 158 149 147